Precipitable_Water
1.00 1.01 1.01 1.03 1.06 1.11 1.12 1.11 1.10 1.13 1.16 1.16 1.15 1.14 1.14 1.14 1.16 1.13 1.19 1.22 1.18 1.16 1.17 1.16 1.13 1.16 1.20 1.18 1.15 1.23 1.26 1.33 1.36 1.40 1.44 1.48 1.54 1.58 1.61 1.64 1.67 1.71 1.76 1.78 1.76 1.77 1.78 1.79 1.75 1.72 1.72 1.65 1.54 1.46 1.45 1.43 1.48 1.49 1.50 1.53 1.40 1.32 1.28 1.28 1.18 1.14 1.01 0.86 0.91 0.94 1.00 1.10 1.16 1.15 1.11 1.10 1.10 1.17 1.25 1.21 1.22 1.20 1.19 1.17 1.17
1.10 1.02 1.03 1.04 1.08 1.10 1.12 1.11 1.10 1.04 1.09 1.14 1.11 1.10 1.12 1.14 1.11 1.13 1.21 1.19 1.16 1.14 1.15 1.15 1.15 1.13 1.11 1.14 1.20 1.24 1.25 1.25 1.24 1.33 1.39 1.47 1.52 1.54 1.57 1.62 1.64 1.67 1.73 1.76 1.76 1.76 1.76 1.75 1.72 1.70 1.70 1.59 1.53 1.54 1.50 1.50 1.53 1.52 1.51 1.42 1.45 1.33 1.24 1.20 1.24 1.18 1.02 0.93 0.90 0.90 0.92 1.04 1.12 1.13 1.11 1.08 1.09 1.19 1.26 1.24 1.24 1.21 1.17 1.17 1.18
1.03 0.95 0.97 0.98 1.00 1.04 1.08 1.08 1.07 1.04 1.05 1.06 1.10 1.13 1.15 1.13 1.12 1.14 1.16 1.16 1.16 1.18 1.17 1.11 1.17 1.21 1.19 1.22 1.24 1.25 1.35 1.36 1.37 1.40 1.45 1.44 1.48 1.50 1.54 1.57 1.60 1.63 1.70 1.74 1.73 1.76 1.75 1.75 1.72 1.72 1.65 1.59 1.52 1.50 1.51 1.50 1.52 1.52 1.54 1.46 1.37 1.39 1.27 1.29 1.28 1.25 1.08 1.10 1.12 0.99 0.85 0.79 0.92 0.97 1.08 1.11 1.13 1.19 1.25 1.24 1.23 1.20 1.17 1.19 1.19
0.99 0.93 0.86 0.91 0.95 0.98 1.01 1.01 1.02 1.04 1.04 1.05 1.09 1.10 1.13 1.14 1.14 1.14 1.14 1.17 1.18 1.19 1.17 1.19 1.22 1.26 1.31 1.33 1.35 1.33 1.28 1.36 1.40 1.43 1.44 1.44 1.40 1.46 1.49 1.53 1.57 1.60 1.67 1.70 1.73 1.76 1.78 1.75 1.75 1.70 1.61 1.62 1.57 1.52 1.51 1.50 1.55 1.55 1.54 1.50 1.41 1.20 1.15 1.15 1.34 1.32 1.24 1.11 0.94 0.94 0.96 0.88 0.78 0.84 0.91 1.04 1.16 1.18 1.24 1.22 1.22 1.18 1.18 1.20 1.19
1.01 0.99 0.93 0.86 0.88 0.90 0.91 0.93 0.99 0.99 1.00 1.01 1.04 1.06 1.08 1.08 1.10 1.10 1.10 1.12 1.16 1.20 1.20 1.22 1.24 1.25 1.29 1.33 1.38 1.34 1.35 1.32 1.29 1.27 1.32 1.36 1.37 1.38 1.40 1.51 1.56 1.59 1.64 1.67 1.72 1.76 1.80 1.77 1.74 1.67 1.60 1.62 1.64 1.60 1.55 1.56 1.59 1.59 1.56 1.48 1.36 1.20 1.06 1.08 1.22 1.30 1.27 1.28 1.10 0.99 0.93 0.87 0.86 0.93 0.95 1.01 1.13 1.13 1.18 1.21 1.22 1.19 1.17 1.18 1.15
1.07 1.03 0.98 0.87 0.79 0.83 0.89 0.93 0.94 0.94 0.96 0.99 1.04 1.05 1.06 1.07 1.10 1.11 1.11 1.14 1.16 1.19 1.23 1.23 1.17 1.13 1.14 1.11 1.06 1.08 1.06 1.08 1.04 1.06 1.17 1.20 1.23 1.37 1.45 1.50 1.54 1.58 1.62 1.66 1.72 1.78 1.78 1.77 1.76 1.65 1.60 1.63 1.65 1.63 1.62 1.60 1.58 1.56 1.55 1.48 1.33 1.24 1.04 1.00 1.01 1.22 1.22 1.23 1.24 1.19 1.10 0.92 0.90 1.00 0.95 0.82 1.10 1.17 1.18 1.19 1.20 1.20 1.20 1.16 1.16
1.13 1.11 1.09 1.01 0.90 0.81 0.81 0.84 0.86 0.86 0.88 0.96 1.02 1.05 1.08 1.10 1.12 1.13 1.11 1.12 1.16 1.19 1.23 1.22 1.15 1.14 1.10 1.06 1.07 1.05 1.01 1.07 1.18 1.24 1.23 1.30 1.37 1.38 1.42 1.50 1.55 1.56 1.60 1.66 1.71 1.76 1.79 1.78 1.75 1.67 1.64 1.65 1.68 1.66 1.60 1.57 1.57 1.57 1.57 1.44 1.30 1.18 1.04 0.94 0.96 1.02 1.10 1.10 1.11 1.13 1.16 1.21 1.17 1.03 0.90 0.95 0.86 1.04 1.13 1.14 1.15 1.19 1.18 1.15 1.12
1.08 1.09 1.06 1.02 0.95 0.86 0.77 0.78 0.80 0.80 0.84 0.92 0.96 1.01 1.04 1.08 1.11 1.12 1.15 1.16 1.19 1.22 1.24 1.23 1.13 1.09 1.06 1.06 1.08 1.06 1.04 1.05 1.17 1.22 1.29 1.32 1.33 1.35 1.40 1.45 1.54 1.58 1.59 1.64 1.69 1.74 1.77 1.76 1.75 1.67 1.64 1.65 1.66 1.64 1.61 1.61 1.59 1.60 1.56 1.44 1.29 1.14 1.08 1.02 1.02 1.09 1.00 0.99 1.11 1.04 1.06 1.11 1.13 1.14 1.12 0.98 0.93 0.85 0.93 1.09 1.13 1.15 1.14 1.16 1.15
1.09 1.08 1.09 1.06 0.99 0.92 0.86 0.79 0.78 0.77 0.82 0.86 0.88 0.92 0.97 1.03 1.08 1.11 1.12 1.14 1.18 1.23 1.22 1.23 1.20 1.14 1.08 1.06 1.04 1.07 1.11 1.14 1.21 1.26 1.26 1.29 1.25 1.33 1.35 1.40 1.49 1.56 1.60 1.62 1.66 1.71 1.75 1.74 1.72 1.66 1.63 1.63 1.66 1.65 1.64 1.61 1.55 1.52 1.46 1.33 1.20 1.12 1.13 1.16 1.12 1.10 1.09 1.04 1.06 1.04 1.06 1.04 1.05 1.07 1.10 1.09 0.98 0.93 0.92 0.93 0.94 1.06 1.10 1.14 1.17
1.12 1.12 1.12 1.10 1.07 1.01 0.94 0.84 0.79 0.79 0.82 0.83 0.84 0.88 0.93 0.99 1.02 1.05 1.05 1.10 1.14 1.17 1.19 1.19 1.20 1.19 1.12 1.07 1.01 1.02 1.09 1.14 1.19 1.17 1.19 1.24 1.20 1.24 1.31 1.36 1.43 1.49 1.55 1.61 1.63 1.68 1.72 1.74 1.70 1.64 1.63 1.64 1.65 1.64 1.63 1.56 1.51 1.47 1.44 1.36 1.23 1.09 1.16 1.18 1.15 1.15 1.15 1.14 1.10 1.06 0.99 0.99 1.00 1.00 1.01 1.02 1.04 1.04 0.94 0.95 0.98 0.95 0.93 1.06 1.18
1.10 1.12 1.14 1.13 1.14 1.11 1.07 0.97 0.88 0.86 0.89 0.89 0.86 0.89 0.92 0.95 0.97 0.99 1.02 1.08 1.14 1.16 1.18 1.16 1.20 1.20 1.12 1.07 1.02 0.99 1.04 1.08 1.08 1.09 1.14 1.16 1.14 1.17 1.21 1.32 1.42 1.45 1.52 1.56 1.61 1.66 1.68 1.70 1.67 1.64 1.65 1.66 1.64 1.61 1.56 1.50 1.48 1.46 1.45 1.38 1.19 1.08 1.14 1.19 1.19 1.18 1.17 1.15 1.12 1.08 1.04 1.00 0.94 0.92 0.95 0.99 0.99 0.98 0.98 1.00 1.04 1.05 1.02 1.00 1.11
1.09 1.11 1.12 1.14 1.14 1.12 1.14 1.07 1.02 0.99 0.98 0.94 0.91 0.90 0.90 0.92 0.94 0.94 0.99 1.06 1.13 1.17 1.20 1.20 1.22 1.21 1.18 1.13 1.06 1.03 1.04 1.05 1.03 1.02 1.06 1.06 1.09 1.10 1.18 1.27 1.36 1.45 1.49 1.51 1.56 1.63 1.65 1.65 1.66 1.64 1.63 1.65 1.61 1.60 1.56 1.50 1.48 1.48 1.45 1.33 1.17 1.14 1.19 1.19 1.17 1.12 1.11 1.12 1.12 1.11 1.09 1.10 1.07 1.02 1.05 1.06 1.03 1.02 1.00 0.99 1.01 1.09 1.09 1.08 1.13
1.07 1.08 1.10 1.12 1.11 1.10 1.08 1.09 1.07 1.02 1.00 0.97 0.93 0.91 0.90 0.89 0.90 0.89 0.91 1.02 1.10 1.17 1.19 1.21 1.23 1.22 1.19 1.16 1.11 1.10 1.09 1.07 1.06 1.05 1.08 1.07 1.09 1.10 1.13 1.14 1.26 1.35 1.42 1.45 1.51 1.58 1.62 1.62 1.60 1.58 1.59 1.65 1.65 1.61 1.55 1.50 1.47 1.46 1.42 1.29 1.16 1.11 1.14 1.17 1.13 1.09 1.11 1.08 1.07 1.14 1.12 1.12 1.10 1.15 1.13 1.08 1.09 1.10 1.04 0.95 1.01 1.06 0.98 1.02 1.11
1.02 1.05 1.07 1.09 1.10 1.11 1.11 1.09 1.07 1.03 1.00 0.99 0.98 0.95 0.91 0.90 0.91 0.90 0.90 1.00 1.06 1.11 1.15 1.18 1.20 1.22 1.23 1.20 1.17 1.17 1.12 1.11 1.09 1.07 1.10 1.12 1.13 1.11 1.10 1.11 1.15 1.23 1.36 1.42 1.52 1.60 1.62 1.64 1.64 1.62 1.65 1.67 1.66 1.63 1.57 1.49 1.48 1.43 1.37 1.23 1.12 1.13 1.17 1.16 1.13 1.13 1.15 1.14 1.15 1.13 1.13 1.13 1.15 1.19 1.19 1.15 1.09 1.05 1.00 0.96 0.94 0.98 0.99 0.97 1.06
0.99 1.03 1.05 1.06 1.09 1.12 1.12 1.10 1.08 1.06 1.02 1.03 1.05 1.06 1.03 0.97 0.95 0.94 0.95 1.00 1.05 1.09 1.14 1.15 1.17 1.20 1.23 1.24 1.23 1.23 1.18 1.16 1.14 1.14 1.14 1.13 1.15 1.14 1.14 1.16 1.15 1.21 1.31 1.43 1.54 1.57 1.62 1.65 1.63 1.61 1.63 1.65 1.65 1.61 1.57 1.49 1.47 1.42 1.32 1.19 1.13 1.13 1.14 1.15 1.14 1.14 1.13 1.14 1.14 1.14 1.15 1.17 1.19 1.22 1.22 1.20 1.18 1.12 1.07 1.05 0.98 0.87 0.89 0.94 0.93
0.95 0.98 1.03 1.06 1.09 1.12 1.14 1.14 1.11 1.08 1.04 1.03 1.07 1.12 1.15 1.13 1.10 1.03 0.99 1.01 1.05 1.09 1.13 1.15 1.17 1.20 1.22 1.22 1.23 1.24 1.24 1.24 1.22 1.21 1.19 1.17 1.15 1.15 1.15 1.16 1.17 1.21 1.32 1.43 1.50 1.54 1.60 1.62 1.63 1.61 1.64 1.65 1.64 1.61 1.55 1.46 1.43 1.35 1.24 1.16 1.08 1.13 1.13 1.13 1.13 1.15 1.13 1.14 1.14 1.17 1.17 1.16 1.21 1.22 1.24 1.27 1.25 1.21 1.16 1.13 1.08 0.99 0.86 0.79 0.89
0.90 0.94 0.97 1.03 1.08 1.12 1.14 1.15 1.14 1.11 1.06 1.03 1.04 1.10 1.15 1.21 1.25 1.24 1.20 1.15 1.13 1.14 1.14 1.17 1.18 1.20 1.22 1.23 1.24 1.25 1.26 1.22 1.18 1.17 1.18 1.20 1.20 1.19 1.17 1.19 1.22 1.24 1.28 1.40 1.46 1.53 1.60 1.63 1.61 1.62 1.63 1.64 1.62 1.59 1.53 1.46 1.42 1.32 1.19 1.10 1.04 1.08 1.13 1.13 1.15 1.13 1.12 1.13 1.12 1.12 1.12 1.15 1.18 1.22 1.25 1.27 1.27 1.25 1.22 1.18 1.15 1.04 0.98 0.86 0.82
0.85 0.90 0.96 1.01 1.06 1.08 1.11 1.16 1.17 1.13 1.09 1.04 1.04 1.11 1.19 1.25 1.29 1.31 1.35 1.32 1.26 1.20 1.18 1.19 1.19 1.20 1.21 1.23 1.24 1.25 1.25 1.25 1.25 1.23 1.25 1.23 1.22 1.21 1.22 1.21 1.20 1.23 1.27 1.35 1.43 1.49 1.56 1.62 1.61 1.61 1.63 1.62 1.59 1.57 1.50 1.44 1.39 1.30 1.20 1.12 1.07 1.08 1.10 1.15 1.16 1.15 1.13 1.11 1.10 1.11 1.12 1.12 1.18 1.20 1.21 1.25 1.25 1.25 1.23 1.21 1.18 1.15 1.11 0.95 0.91
0.82 0.87 0.93 0.99 1.04 1.08 1.11 1.13 1.18 1.18 1.15 1.11 1.10 1.14 1.21 1.28 1.34 1.37 1.36 1.41 1.43 1.38 1.29 1.27 1.26 1.24 1.23 1.23 1.24 1.26 1.28 1.29 1.31 1.32 1.31 1.26 1.22 1.22 1.21 1.21 1.24 1.27 1.27 1.30 1.36 1.43 1.50 1.55 1.58 1.59 1.61 1.59 1.59 1.56 1.49 1.41 1.35 1.27 1.22 1.15 1.11 1.09 1.09 1.09 1.13 1.15 1.13 1.12 1.08 1.06 1.10 1.10 1.16 1.19 1.22 1.24 1.26 1.25 1.24 1.25 1.22 1.20 1.16 1.10 1.00
0.75 0.80 0.85 0.92 0.98 1.05 1.10 1.13 1.16 1.20 1.19 1.17 1.16 1.19 1.22 1.27 1.34 1.38 1.42 1.47 1.51 1.50 1.49 1.40 1.36 1.32 1.30 1.32 1.34 1.35 1.36 1.36 1.36 1.34 1.31 1.26 1.25 1.25 1.25 1.25 1.25 1.28 1.26 1.28 1.31 1.36 1.44 1.49 1.54 1.57 1.58 1.58 1.56 1.54 1.47 1.38 1.32 1.26 1.22 1.18 1.15 1.12 1.10 1.08 1.12 1.17 1.17 1.15 1.10 1.06 1.07 1.09 1.13 1.16 1.19 1.23 1.25 1.27 1.28 1.26 1.25 1.23 1.21 1.18 1.12
0.67 0.72 0.78 0.85 0.93 1.01 1.09 1.15 1.18 1.22 1.25 1.23 1.20 1.18 1.20 1.26 1.32 1.38 1.39 1.42 1.44 1.46 1.49 1.47 1.47 1.42 1.39 1.36 1.36 1.39 1.41 1.45 1.45 1.42 1.36 1.31 1.29 1.29 1.29 1.30 1.33 1.29 1.29 1.27 1.28 1.32 1.39 1.44 1.50 1.55 1.56 1.55 1.52 1.48 1.44 1.36 1.29 1.24 1.22 1.23 1.22 1.16 1.12 1.14 1.17 1.17 1.20 1.20 1.15 1.09 1.08 1.10 1.14 1.12 1.15 1.19 1.23 1.26 1.29 1.28 1.28 1.27 1.24 1.23 1.17
0.60 0.65 0.71 0.79 0.89 0.97 1.06 1.14 1.20 1.22 1.24 1.26 1.26 1.23 1.22 1.25 1.30 1.36 1.41 1.42 1.41 1.44 1.46 1.47 1.49 1.47 1.44 1.44 1.45 1.47 1.49 1.50 1.48 1.46 1.39 1.36 1.32 1.29 1.31 1.34 1.30 1.32 1.31 1.28 1.28 1.31 1.36 1.41 1.45 1.52 1.57 1.57 1.52 1.46 1.41 1.33 1.25 1.20 1.19 1.24 1.23 1.20 1.16 1.17 1.20 1.18 1.20 1.23 1.20 1.14 1.10 1.10 1.12 1.12 1.15 1.16 1.19 1.22 1.25 1.25 1.26 1.25 1.24 1.22 1.22
0.59 0.62 0.68 0.76 0.84 0.92 1.01 1.09 1.15 1.19 1.22 1.25 1.26 1.23 1.22 1.24 1.29 1.35 1.37 1.38 1.42 1.43 1.46 1.49 1.48 1.46 1.46 1.49 1.52 1.51 1.52 1.52 1.48 1.47 1.44 1.41 1.38 1.34 1.35 1.31 1.31 1.32 1.34 1.32 1.30 1.31 1.34 1.37 1.42 1.51 1.57 1.55 1.48 1.43 1.39 1.32 1.25 1.21 1.18 1.21 1.24 1.21 1.19 1.20 1.21 1.21 1.22 1.24 1.21 1.16 1.12 1.11 1.11 1.10 1.14 1.17 1.21 1.21 1.24 1.24 1.24 1.27 1.24 1.24 1.24
0.58 0.62 0.69 0.75 0.81 0.90 0.99 1.07 1.13 1.18 1.21 1.23 1.23 1.23 1.23 1.26 1.30 1.34 1.35 1.38 1.43 1.45 1.47 1.48 1.46 1.46 1.50 1.52 1.52 1.53 1.52 1.51 1.48 1.49 1.45 1.44 1.43 1.39 1.37 1.33 1.33 1.36 1.32 1.33 1.34 1.33 1.35 1.35 1.39 1.47 1.54 1.51 1.46 1.40 1.36 1.33 1.27 1.25 1.23 1.22 1.24 1.25 1.26 1.28 1.28 1.26 1.25 1.24 1.20 1.15 1.14 1.13 1.10 1.06 1.10 1.14 1.19 1.22 1.23 1.24 1.24 1.26 1.26 1.24 1.25
0.55 0.59 0.63 0.70 0.77 0.82 0.90 0.99 1.07 1.13 1.18 1.19 1.19 1.21 1.24 1.28 1.32 1.33 1.35 1.41 1.44 1.48 1.47 1.45 1.44 1.44 1.49 1.51 1.52 1.55 1.53 1.51 1.49 1.51 1.49 1.46 1.42 1.38 1.36 1.32 1.33 1.33 1.34 1.34 1.33 1.36 1.35 1.35 1.38 1.44 1.48 1.47 1.43 1.39 1.33 1.30 1.29 1.30 1.30 1.29 1.30 1.31 1.32 1.34 1.35 1.33 1.29 1.26 1.22 1.16 1.14 1.14 1.11 1.06 1.07 1.10 1.16 1.18 1.22 1.24 1.24 1.25 1.25 1.25 1.24
0.52 0.56 0.60 0.63 0.70 0.77 0.84 0.93 1.01 1.08 1.13 1.19 1.24 1.27 1.28 1.30 1.32 1.35 1.36 1.40 1.44 1.47 1.46 1.44 1.44 1.43 1.46 1.48 1.51 1.54 1.54 1.54 1.53 1.52 1.52 1.49 1.43 1.36 1.31 1.32 1.33 1.31 1.33 1.33 1.31 1.33 1.33 1.33 1.39 1.44 1.45 1.43 1.43 1.39 1.34 1.30 1.28 1.29 1.32 1.35 1.36 1.35 1.36 1.38 1.39 1.38 1.34 1.32 1.26 1.20 1.17 1.16 1.13 1.08 1.07 1.10 1.14 1.16 1.20 1.21 1.22 1.24 1.25 1.24 1.20
0.49 0.51 0.55 0.61 0.70 0.76 0.81 0.89 0.96 1.03 1.10 1.16 1.22 1.27 1.30 1.31 1.32 1.36 1.38 1.39 1.41 1.44 1.45 1.43 1.42 1.42 1.43 1.45 1.48 1.51 1.54 1.57 1.58 1.58 1.57 1.52 1.44 1.35 1.30 1.27 1.32 1.33 1.32 1.29 1.31 1.31 1.34 1.35 1.39 1.44 1.42 1.41 1.41 1.40 1.36 1.33 1.32 1.31 1.31 1.34 1.37 1.37 1.37 1.39 1.40 1.40 1.40 1.38 1.33 1.26 1.20 1.18 1.15 1.14 1.12 1.12 1.13 1.16 1.18 1.18 1.21 1.22 1.24 1.22 1.19
0.49 0.52 0.56 0.59 0.64 0.72 0.78 0.85 0.92 0.98 1.05 1.11 1.17 1.22 1.24 1.26 1.28 1.32 1.36 1.37 1.39 1.41 1.41 1.40 1.40 1.40 1.41 1.43 1.48 1.53 1.57 1.58 1.61 1.62 1.60 1.55 1.49 1.38 1.30 1.30 1.32 1.31 1.30 1.28 1.27 1.27 1.31 1.37 1.40 1.43 1.42 1.42 1.41 1.39 1.37 1.36 1.35 1.34 1.32 1.32 1.36 1.38 1.38 1.38 1.40 1.42 1.43 1.43 1.40 1.34 1.26 1.21 1.19 1.19 1.18 1.19 1.18 1.16 1.20 1.19 1.21 1.22 1.24 1.23 1.20
0.41 0.47 0.53 0.56 0.60 0.67 0.75 0.83 0.88 0.94 0.99 1.05 1.11 1.15 1.19 1.22 1.25 1.30 1.34 1.34 1.37 1.36 1.36 1.36 1.37 1.36 1.38 1.44 1.50 1.56 1.61 1.62 1.63 1.62 1.58 1.56 1.51 1.43 1.36 1.31 1.28 1.29 1.30 1.28 1.28 1.30 1.30 1.33 1.40 1.42 1.39 1.40 1.38 1.37 1.37 1.36 1.35 1.36 1.36 1.33 1.35 1.37 1.38 1.38 1.40 1.42 1.45 1.45 1.44 1.42 1.37 1.30 1.25 1.23 1.23 1.24 1.22 1.22 1.21 1.18 1.20 1.22 1.23 1.23 1.19
0.36 0.44 0.50 0.53 0.55 0.61 0.72 0.80 0.87 0.92 0.95 1.00 1.06 1.09 1.12 1.14 1.18 1.24 1.27 1.31 1.36 1.35 1.33 1.34 1.33 1.32 1.38 1.46 1.51 1.55 1.58 1.62 1.63 1.62 1.60 1.57 1.53 1.47 1.38 1.30 1.26 1.27 1.28 1.27 1.27 1.28 1.28 1.29 1.34 1.38 1.36 1.35 1.33 1.35 1.37 1.39 1.40 1.38 1.37 1.36 1.35 1.35 1.37 1.38 1.38 1.39 1.43 1.45 1.47 1.49 1.50 1.46 1.37 1.27 1.24 1.26 1.26 1.26 1.26 1.24 1.23 1.22 1.20 1.20 1.18
0.37 0.43 0.49 0.54 0.56 0.61 0.71 0.79 0.86 0.89 0.92 0.95 1.00 1.05 1.09 1.12 1.16 1.20 1.23 1.30 1.34 1.32 1.33 1.33 1.30 1.34 1.41 1.47 1.49 1.51 1.56 1.57 1.61 1.65 1.65 1.61 1.57 1.52 1.42 1.31 1.26 1.25 1.25 1.24 1.24 1.22 1.23 1.27 1.32 1.34 1.30 1.29 1.30 1.32 1.36 1.38 1.40 1.41 1.40 1.38 1.35 1.34 1.34 1.35 1.37 1.38 1.38 1.43 1.49 1.55 1.58 1.60 1.57 1.47 1.33 1.30 1.29 1.26 1.24 1.25 1.27 1.26 1.24 1.22 1.19
0.36 0.40 0.45 0.50 0.55 0.61 0.69 0.78 0.85 0.88 0.90 0.91 0.94 1.01 1.07 1.08 1.13 1.16 1.20 1.29 1.32 1.32 1.31 1.31 1.32 1.38 1.42 1.43 1.44 1.48 1.50 1.52 1.59 1.61 1.65 1.67 1.64 1.56 1.44 1.33 1.26 1.21 1.23 1.25 1.20 1.17 1.20 1.25 1.31 1.35 1.30 1.26 1.28 1.33 1.35 1.36 1.38 1.40 1.41 1.39 1.38 1.35 1.34 1.34 1.36 1.37 1.41 1.46 1.51 1.58 1.65 1.68 1.71 1.70 1.56 1.39 1.30 1.24 1.21 1.23 1.25 1.26 1.27 1.30 1.31
0.37 0.38 0.42 0.47 0.52 0.59 0.67 0.77 0.85 0.87 0.90 0.92 0.94 0.98 1.01 1.05 1.09 1.13 1.22 1.27 1.28 1.29 1.31 1.32 1.37 1.41 1.41 1.44 1.47 1.48 1.47 1.50 1.53 1.58 1.65 1.68 1.65 1.59 1.49 1.37 1.26 1.23 1.23 1.19 1.13 1.15 1.18 1.24 1.29 1.30 1.28 1.27 1.29 1.33 1.34 1.35 1.37 1.39 1.41 1.41 1.39 1.37 1.36 1.36 1.37 1.40 1.44 1.50 1.57 1.63 1.69 1.80 1.78 1.73 1.67 1.51 1.34 1.23 1.21 1.23 1.25 1.26 1.28 1.29 1.30
0.43 0.43 0.42 0.45 0.53 0.60 0.68 0.78 0.86 0.87 0.87 0.89 0.97 0.98 1.01 1.08 1.12 1.20 1.23 1.23 1.25 1.27 1.29 1.30 1.35 1.38 1.41 1.45 1.47 1.48 1.48 1.50 1.54 1.59 1.62 1.64 1.63 1.57 1.54 1.47 1.37 1.30 1.22 1.17 1.16 1.15 1.18 1.22 1.26 1.29 1.29 1.29 1.29 1.33 1.34 1.35 1.37 1.39 1.39 1.39 1.38 1.37 1.38 1.41 1.44 1.48 1.53 1.58 1.64 1.66 1.68 1.57 1.55 1.64 1.68 1.61 1.45 1.30 1.21 1.21 1.24 1.25 1.25 1.28 1.34
0.42 0.43 0.46 0.48 0.51 0.58 0.68 0.78 0.85 0.90 0.93 0.97 1.02 1.08 1.13 1.17 1.21 1.20 1.21 1.21 1.22 1.23 1.25 1.29 1.31 1.36 1.41 1.45 1.47 1.48 1.48 1.53 1.56 1.58 1.60 1.60 1.60 1.59 1.58 1.53 1.43 1.32 1.23 1.16 1.15 1.14 1.16 1.20 1.26 1.32 1.32 1.29 1.29 1.33 1.34 1.35 1.36 1.36 1.37 1.39 1.40 1.41 1.43 1.47 1.53 1.59 1.64 1.67 1.69 1.68 1.71 1.66 1.62 1.65 1.69 1.67 1.56 1.39 1.25 1.19 1.19 1.20 1.22 1.30 1.36
0.48 0.47 0.48 0.52 0.55 0.60 0.67 0.75 0.85 0.93 0.97 1.00 1.03 1.10 1.11 1.11 1.18 1.18 1.21 1.24 1.24 1.24 1.25 1.30 1.31 1.35 1.39 1.42 1.44 1.46 1.49 1.53 1.55 1.57 1.57 1.58 1.59 1.59 1.55 1.56 1.51 1.42 1.34 1.27 1.23 1.21 1.16 1.18 1.26 1.33 1.32 1.27 1.30 1.33 1.33 1.33 1.33 1.34 1.35 1.37 1.40 1.41 1.44 1.49 1.57 1.64 1.70 1.73 1.74 1.73 1.70 1.68 1.67 1.67 1.69 1.70 1.63 1.49 1.33 1.22 1.16 1.18 1.22 1.29 1.35
0.60 0.60 0.58 0.63 0.67 0.68 0.71 0.77 0.83 0.90 0.95 0.98 1.04 1.11 1.13 1.15 1.15 1.17 1.20 1.23 1.25 1.24 1.24 1.29 1.31 1.34 1.36 1.40 1.43 1.44 1.48 1.52 1.56 1.56 1.55 1.55 1.56 1.58 1.60 1.63 1.55 1.47 1.37 1.28 1.22 1.21 1.21 1.20 1.22 1.27 1.28 1.25 1.29 1.32 1.32 1.32 1.32 1.33 1.35 1.37 1.41 1.44 1.48 1.53 1.60 1.67 1.72 1.74 1.75 1.73 1.69 1.67 1.71 1.70 1.71 1.70 1.65 1.53 1.39 1.28 1.19 1.18 1.21 1.24 1.30
0.69 0.71 0.70 0.72 0.77 0.79 0.79 0.79 0.82 0.87 0.94 1.01 1.06 1.08 1.10 1.12 1.14 1.19 1.21 1.21 1.21 1.21 1.25 1.27 1.28 1.31 1.34 1.39 1.45 1.49 1.48 1.49 1.50 1.47 1.49 1.53 1.59 1.65 1.65 1.66 1.56 1.51 1.43 1.33 1.29 1.26 1.26 1.24 1.21 1.20 1.24 1.22 1.24 1.30 1.31 1.31 1.32 1.34 1.35 1.37 1.42 1.45 1.49 1.56 1.63 1.70 1.74 1.75 1.73 1.72 1.73 1.73 1.72 1.70 1.70 1.70 1.66 1.58 1.43 1.31 1.21 1.18 1.17 1.20 1.27
0.75 0.75 0.72 0.73 0.81 0.86 0.87 0.87 0.86 0.86 0.93 0.98 1.02 1.04 1.06 1.07 1.11 1.15 1.19 1.19 1.18 1.21 1.26 1.27 1.26 1.31 1.35 1.39 1.42 1.41 1.39 1.38 1.39 1.41 1.48 1.54 1.57 1.61 1.69 1.74 1.68 1.62 1.53 1.47 1.39 1.30 1.27 1.27 1.25 1.23 1.25 1.25 1.25 1.29 1.31 1.32 1.33 1.33 1.38 1.43 1.47 1.50 1.52 1.58 1.64 1.68 1.75 1.74 1.71 1.73 1.75 1.73 1.70 1.71 1.73 1.71 1.66 1.58 1.43 1.31 1.22 1.18 1.16 1.18 1.24
0.78 0.80 0.83 0.84 0.87 0.88 0.87 0.88 0.89 0.91 0.94 0.95 0.98 0.99 1.01 1.04 1.09 1.14 1.14 1.13 1.16 1.19 1.22 1.23 1.24 1.29 1.33 1.36 1.39 1.39 1.39 1.36 1.34 1.42 1.51 1.57 1.66 1.71 1.72 1.72 1.70 1.68 1.63 1.60 1.50 1.39 1.31 1.27 1.28 1.28 1.28 1.28 1.26 1.26 1.30 1.33 1.32 1.34 1.40 1.47 1.52 1.53 1.54 1.61 1.68 1.71 1.69 1.66 1.67 1.70 1.73 1.71 1.69 1.71 1.71 1.68 1.64 1.59 1.45 1.33 1.26 1.21 1.18 1.16 1.26
0.75 0.77 0.82 0.82 0.91 0.98 0.95 0.93 0.94 0.94 0.97 0.99 0.99 0.97 0.98 1.03 1.07 1.08 1.07 1.09 1.16 1.22 1.22 1.20 1.25 1.31 1.33 1.35 1.38 1.39 1.39 1.44 1.48 1.50 1.52 1.58 1.65 1.66 1.70 1.74 1.72 1.72 1.69 1.63 1.56 1.49 1.41 1.34 1.33 1.32 1.30 1.29 1.30 1.28 1.30 1.33 1.32 1.35 1.42 1.50 1.56 1.60 1.66 1.71 1.72 1.72 1.67 1.62 1.63 1.65 1.68 1.68 1.67 1.64 1.62 1.62 1.61 1.56 1.45 1.36 1.33 1.25 1.22 1.24 1.26
0.82 0.84 0.80 0.79 0.84 0.92 0.98 1.01 1.02 1.00 0.98 0.99 1.00 0.98 1.01 1.05 1.07 1.04 1.06 1.13 1.20 1.24 1.25 1.27 1.29 1.30 1.31 1.34 1.36 1.37 1.39 1.41 1.47 1.51 1.51 1.51 1.58 1.67 1.72 1.75 1.78 1.75 1.68 1.62 1.59 1.55 1.49 1.44 1.42 1.39 1.36 1.33 1.36 1.35 1.32 1.33 1.34 1.39 1.47 1.58 1.65 1.72 1.81 1.81 1.75 1.69 1.64 1.62 1.62 1.64 1.65 1.68 1.67 1.63 1.63 1.61 1.56 1.50 1.47 1.42 1.36 1.28 1.25 1.22 1.21
0.67 0.68 0.77 0.81 0.79 0.83 0.89 0.97 1.05 1.09 1.09 1.03 1.01 0.99 1.04 1.08 1.05 1.05 1.12 1.19 1.23 1.24 1.24 1.26 1.28 1.30 1.31 1.30 1.33 1.34 1.33 1.38 1.42 1.45 1.44 1.41 1.51 1.61 1.66 1.71 1.74 1.72 1.68 1.62 1.59 1.57 1.52 1.46 1.44 1.44 1.44 1.44 1.45 1.42 1.40 1.39 1.40 1.46 1.57 1.67 1.77 1.85 1.90 1.88 1.75 1.64 1.61 1.63 1.68 1.68 1.70 1.69 1.64 1.61 1.60 1.57 1.51 1.47 1.45 1.39 1.32 1.26 1.22 1.21 1.22
0.71 0.72 0.72 0.75 0.76 0.85 0.90 0.97 1.03 1.05 1.07 1.10 1.06 1.01 1.03 1.04 1.03 1.17 1.24 1.26 1.25 1.23 1.24 1.24 1.26 1.29 1.33 1.33 1.34 1.38 1.39 1.38 1.40 1.43 1.45 1.43 1.45 1.49 1.56 1.63 1.65 1.67 1.64 1.59 1.57 1.56 1.52 1.48 1.42 1.41 1.44 1.48 1.50 1.48 1.48 1.49 1.50 1.58 1.65 1.70 1.79 1.87 1.90 1.87 1.79 1.69 1.68 1.68 1.68 1.68 1.68 1.66 1.61 1.58 1.55 1.51 1.47 1.42 1.38 1.32 1.26 1.23 1.21 1.21 1.19
0.67 0.69 0.73 0.72 0.70 0.69 0.74 0.80 0.88 0.94 1.02 1.05 1.07 1.03 1.02 1.00 1.14 1.23 1.20 1.20 1.22 1.24 1.25 1.26 1.27 1.28 1.29 1.31 1.34 1.37 1.41 1.45 1.45 1.45 1.40 1.39 1.45 1.57 1.58 1.58 1.61 1.66 1.69 1.64 1.58 1.55 1.46 1.41 1.40 1.38 1.41 1.47 1.52 1.55 1.54 1.54 1.61 1.68 1.71 1.73 1.77 1.80 1.86 1.86 1.71 1.70 1.71 1.69 1.68 1.68 1.66 1.62 1.58 1.53 1.49 1.47 1.45 1.40 1.33 1.27 1.24 1.22 1.21 1.18 1.13
0.70 0.69 0.71 0.72 0.73 0.73 0.71 0.72 0.78 0.86 0.92 1.03 1.09 1.12 1.04 1.10 1.19 1.24 1.28 1.26 1.22 1.20 1.20 1.21 1.25 1.30 1.33 1.38 1.38 1.37 1.40 1.44 1.49 1.53 1.49 1.45 1.42 1.45 1.47 1.52 1.60 1.63 1.65 1.67 1.64 1.57 1.48 1.41 1.34 1.35 1.39 1.46 1.54 1.58 1.56 1.60 1.69 1.77 1.80 1.81 1.82 1.82 1.81 1.70 1.66 1.67 1.68 1.64 1.60 1.61 1.61 1.58 1.53 1.47 1.46 1.43 1.37 1.31 1.27 1.24 1.23 1.22 1.18 1.13 1.11
0.70 0.74 0.74 0.70 0.69 0.67 0.67 0.71 0.71 0.82 0.87 0.91 0.96 1.04 1.09 1.15 1.18 1.22 1.24 1.24 1.20 1.19 1.19 1.22 1.25 1.28 1.32 1.34 1.32 1.32 1.35 1.42 1.48 1.53 1.55 1.56 1.54 1.49 1.47 1.49 1.52 1.50 1.55 1.60 1.65 1.64 1.59 1.52 1.41 1.36 1.38 1.45 1.52 1.58 1.60 1.64 1.73 1.76 1.74 1.76 1.79 1.79 1.79 1.76 1.66 1.61 1.59 1.56 1.53 1.57 1.55 1.53 1.49 1.48 1.46 1.41 1.32 1.28 1.23 1.21 1.20 1.17 1.13 1.12 1.10
0.83 0.82 0.80 0.76 0.72 0.69 0.69 0.69 0.71 0.80 0.86 0.88 0.90 0.92 0.98 1.02 1.07 1.12 1.15 1.16 1.15 1.16 1.14 1.15 1.20 1.26 1.27 1.27 1.25 1.25 1.29 1.31 1.37 1.43 1.45 1.49 1.52 1.50 1.43 1.38 1.38 1.39 1.40 1.45 1.54 1.59 1.61 1.56 1.45 1.41 1.41 1.39 1.44 1.51 1.57 1.63 1.71 1.71 1.71 1.74 1.76 1.74 1.73 1.66 1.58 1.55 1.51 1.51 1.51 1.52 1.52 1.48 1.45 1.41 1.36 1.31 1.26 1.23 1.19 1.16 1.12 1.10 1.10 1.10 1.03
0.85 0.86 0.86 0.80 0.80 0.76 0.76 0.75 0.76 0.82 0.84 0.86 0.88 0.92 0.95 0.97 1.01 1.06 1.11 1.10 1.11 1.14 1.16 1.15 1.16 1.17 1.15 1.18 1.19 1.22 1.27 1.32 1.38 1.45 1.48 1.45 1.39 1.41 1.41 1.41 1.46 1.47 1.43 1.39 1.41 1.55 1.67 1.71 1.66 1.56 1.47 1.43 1.48 1.50 1.58 1.75 1.80 1.78 1.76 1.74 1.76 1.75 1.74 1.64 1.56 1.52 1.47 1.49 1.48 1.44 1.41 1.38 1.34 1.29 1.23 1.19 1.15 1.13 1.11 1.09 1.06 1.06 1.05 1.01 0.94
0.95 0.95 0.93 0.91 0.90 0.88 0.85 0.83 0.84 0.88 0.88 0.88 0.90 0.93 0.98 1.01 1.03 1.05 1.07 1.04 1.08 1.11 1.15 1.19 1.25 1.25 1.24 1.25 1.27 1.28 1.32 1.35 1.37 1.41 1.45 1.50 1.60 1.60 1.56 1.49 1.45 1.53 1.52 1.51 1.49 1.43 1.48 1.63 1.77 1.78 1.74 1.59 1.57 1.70 1.83 1.90 1.93 1.91 1.88 1.85 1.86 1.83 1.71 1.57 1.52 1.51 1.48 1.38 1.36 1.33 1.33 1.31 1.27 1.21 1.15 1.10 1.07 1.06 1.02 0.98 0.99 1.01 0.99 0.93 0.92
0.99 0.96 0.95 0.93 0.92 0.94 0.92 0.90 0.92 0.94 0.93 0.95 0.96 1.00 1.02 1.05 1.07 1.09 1.08 1.06 1.07 1.05 1.08 1.13 1.19 1.25 1.32 1.33 1.31 1.28 1.29 1.30 1.33 1.36 1.40 1.43 1.48 1.60 1.68 1.69 1.66 1.62 1.62 1.62 1.63 1.64 1.72 1.69 1.63 1.67 1.83 1.94 2.01 2.03 2.02 1.97 1.90 1.83 1.81 1.92 1.92 1.74 1.55 1.52 1.50 1.45 1.40 1.34 1.32 1.28 1.29 1.29 1.25 1.20 1.12 1.08 1.06 1.01 0.96 0.94 0.94 0.95 0.93 0.92 0.92
Wind_Speed
14 16 18 19 20 20 20 20 21 22 22 22 22 21 21 21 21 20 20 19 19 18 18 17 16 15 15 14 13 13 12 12 12 12 11 11 11 11 10 9 9 8 7 6 6 6 5 5 5 5 5 5 4 4 3 3 4 4 5 5 6 6 6 7 7 7 7 6 5 4 4 4 4 4 5 5 5 5 5 4 4 5 5 5 5
13 15 17 19 20 21 21 21 21 22 22 22 22 22 21 21 21 21 20 20 19 19 18 17 17 16 15 14 13 13 13 12 12 12 12 11 11 11 11 10 9 8 8 7 7 6 5 5 5 5 5 4 4 3 3 3 3 4 5 6 6 6 6 7 7 7 7 6 5 4 4 4 4 4 4 4 4 5 5 5 5 5 5 5 5
14 16 17 19 20 21 22 22 22 22 22 23 23 22 22 21 21 21 20 20 19 19 18 18 17 16 15 14 13 13 13 13 12 12 12 12 12 12 11 11 10 9 8 8 7 6 6 5 5 5 4 4 3 3 2 3 3 4 5 5 6 6 6 7 7 7 6 5 5 4 4 5 5 4 4 4 4 4 5 5 5 6 5 5 5
15 16 17 19 20 21 22 22 22 23 23 23 23 23 22 22 22 21 21 20 20 19 19 18 17 17 16 15 14 13 13 13 13 13 13 13 13 12 12 11 11 10 9 8 7 7 6 5 5 5 4 4 3 3 2 2 3 4 5 5 5 6 6 7 7 6 6 5 5 5 5 5 5 4 4 4 4 4 4 4 5 6 6 5 5
17 16 17 19 20 21 22 23 23 23 23 23 23 23 22 22 22 22 21 20 20 20 19 19 18 17 16 15 14 14 13 13 13 13 13 13 13 13 12 12 11 10 10 9 8 7 6 6 5 5 4 4 4 3 3 3 3 4 4 4 4 5 6 6 6 7 6 5 5 5 5 5 5 4 4 4 4 4 4 4 5 6 6 5 5
18 17 17 18 20 22 22 23 23 23 23 23 23 23 23 23 23 22 21 21 21 20 20 19 18 18 17 17 16 15 14 13 13 13 13 13 13 13 13 12 12 11 10 10 9 8 7 6 6 5 5 4 4 3 3 3 3 4 4 3 4 5 5 5 6 7 7 7 6 6 6 6 5 5 4 5 5 5 5 5 5 6 6 5 5
18 18 17 18 20 22 22 23 23 23 23 23 23 24 24 23 23 23 22 21 21 21 21 20 19 19 18 18 17 16 15 14 14 13 13 13 13 13 13 12 12 12 11 10 9 9 8 7 7 6 5 5 4 4 3 3 4 4 4 3 3 4 5 4 5 6 7 7 7 7 7 7 6 5 5 5 5 5 5 5 6 6 6 6 5
19 19 18 18 19 21 23 23 23 23 23 23 24 24 24 24 23 23 23 22 21 21 21 21 20 20 19 19 18 18 17 16 15 14 13 13 13 14 13 13 13 13 12 11 10 9 8 8 7 7 6 6 5 4 4 4 4 4 3 3 3 3 3 3 4 5 6 6 7 7 7 7 7 6 6 6 5 5 5 5 6 6 6 6 6
20 20 20 20 20 21 22 23 23 24 24 24 24 24 24 24 24 24 24 23 22 22 22 22 21 20 20 20 19 18 18 17 16 15 14 14 14 14 15 14 14 13 13 11 11 10 9 9 8 8 7 6 6 5 5 4 4 3 3 3 3 3 3 3 4 5 6 6 7 7 8 8 7 7 7 6 6 6 6 6 6 6 7 7 6
21 21 21 21 21 22 22 22 23 24 24 24 24 24 24 24 24 24 24 23 23 22 22 22 22 21 20 21 20 20 19 18 17 16 16 16 15 15 16 15 15 14 13 12 12 11 10 10 9 9 8 7 6 6 5 5 4 3 3 3 3 3 3 3 4 5 6 6 7 7 8 8 8 8 8 7 6 6 6 7 7 7 7 7 7
21 22 22 23 23 23 22 23 23 23 23 23 24 24 24 24 24 24 24 23 23 22 22 22 22 21 21 21 21 21 20 19 18 18 17 17 17 16 16 16 16 15 14 13 13 12 11 11 10 10 10 9 7 6 6 5 4 3 3 3 3 3 3 3 4 5 6 7 7 8 8 8 8 8 8 8 7 7 7 7 7 7 7 8 8
21 22 22 23 23 23 23 23 23 23 23 23 23 24 24 24 24 24 24 23 23 23 23 23 22 22 22 22 22 21 21 20 20 19 18 18 18 17 17 16 16 16 15 14 14 13 12 12 12 11 11 10 9 7 6 6 5 4 3 3 3 3 3 4 5 6 7 7 8 8 9 9 8 8 8 8 8 7 7 7 7 7 8 8 8
22 22 22 23 24 24 24 24 24 23 23 23 24 24 24 24 24 25 25 24 24 23 23 23 23 23 22 22 22 22 22 21 21 20 19 19 19 18 18 17 16 16 16 16 15 14 13 13 13 13 12 11 10 8 7 6 6 5 4 4 4 4 4 5 5 6 7 8 8 9 9 9 9 9 9 9 8 8 8 7 7 7 8 8 8
23 23 23 24 25 25 25 26 26 25 25 25 24 24 24 24 25 25 25 25 25 24 24 24 24 24 23 23 22 22 22 22 22 21 20 20 19 19 19 18 17 17 17 17 16 15 15 14 14 14 13 12 11 10 9 8 7 6 6 5 5 5 5 6 6 7 7 8 8 9 9 9 9 9 10 9 9 8 8 8 7 8 8 8 8
24 24 24 24 25 26 26 27 27 27 27 26 26 25 25 25 25 26 25 25 25 25 25 25 25 25 24 24 23 23 23 23 23 22 22 21 20 20 20 19 18 18 18 17 17 17 16 15 15 15 14 13 12 11 10 9 8 7 7 6 6 6 6 6 7 7 7 8 8 9 9 9 9 9 10 10 9 9 9 8 8 8 8 9 9
23 24 25 25 25 26 27 28 28 29 28 28 27 27 26 26 26 26 26 26 26 26 26 26 26 25 25 25 25 24 24 24 23 23 23 22 22 21 21 20 19 19 18 18 18 18 17 16 16 16 15 14 13 12 11 10 9 9 8 8 7 6 6 7 7 7 7 8 9 9 9 9 9 9 10 10 10 10 10 9 9 8 9 9 9
22 24 25 25 25 26 28 29 30 30 30 29 29 28 28 27 26 26 26 26 26 27 26 26 26 26 26 26 26 26 25 25 24 24 23 23 23 22 22 21 20 20 19 19 19 18 18 17 17 17 16 15 14 13 12 11 11 10 9 9 8 7 7 7 7 7 8 9 9 9 9 10 10 10 10 10 10 11 11 10 10 9 9 9 9
23 23 24 25 26 26 28 29 31 31 31 31 31 30 28 28 27 27 27 26 26 26 26 27 27 27 27 27 27 27 26 26 26 25 25 24 24 23 23 22 21 21 20 20 19 19 19 18 18 18 17 16 15 14 13 12 12 11 10 9 9 8 8 8 8 8 8 9 9 9 10 10 10 10 11 11 11 11 11 11 11 10 10 10 10
23 24 24 25 26 27 28 29 31 32 32 32 31 30 29 28 28 28 27 27 26 26 26 26 27 27 27 27 27 27 27 27 27 26 26 25 25 24 23 23 22 21 21 21 21 20 20 19 19 19 18 17 16 15 14 13 13 12 11 10 10 9 9 9 9 9 9 9 9 9 10 10 11 11 11 11 11 11 11 12 11 11 11 11 11
22 24 25 25 26 27 28 30 31 32 32 33 32 31 30 29 28 28 28 27 26 26 26 26 26 26 26 26 27 27 27 28 27 27 27 27 26 25 24 23 23 22 22 22 22 21 21 20 20 20 19 18 18 17 15 14 14 13 12 12 11 10 10 10 10 10 10 10 10 10 10 11 11 11 11 12 12 12 12 12 12 12 11 11 11
22 23 23 25 25 25 27 30 31 32 32 32 32 31 31 30 29 29 28 28 27 27 26 26 25 25 26 26 26 27 27 27 28 28 28 28 27 26 25 24 23 23 23 23 23 23 22 21 21 20 20 19 18 18 16 15 15 14 14 13 12 11 11 11 11 11 11 11 11 11 11 11 11 12 12 12 12 12 12 12 12 12 12 12 12
23 23 23 24 24 24 26 28 30 31 31 32 32 31 31 30 30 30 29 28 28 27 27 26 25 25 25 25 25 26 26 27 27 28 28 28 28 27 26 25 24 24 23 24 24 24 23 22 22 21 21 20 19 19 18 17 16 16 15 14 14 13 12 12 12 12 12 12 12 12 12 12 12 12 13 13 13 13 13 13 13 13 12 13 13
24 24 24 23 23 23 25 26 29 30 31 32 32 31 31 31 31 30 29 29 29 28 27 26 26 26 25 25 25 25 26 26 26 27 27 28 28 28 27 26 25 24 24 24 25 25 24 23 23 22 22 21 20 20 19 18 18 17 16 16 15 14 14 14 14 14 14 14 14 13 13 13 13 13 14 14 13 13 13 14 14 14 14 13 14
25 24 24 23 23 23 23 25 27 29 31 31 31 31 31 31 31 30 30 30 29 29 28 27 27 26 26 26 26 25 26 26 26 26 26 27 28 28 27 27 26 25 25 25 25 25 25 24 24 24 23 22 22 21 20 20 19 18 18 17 16 15 15 15 15 15 15 15 15 15 14 14 14 14 14 14 14 14 14 15 15 15 15 15 15
25 24 24 23 23 23 24 25 26 28 30 30 31 31 31 31 31 31 31 30 30 29 28 28 28 27 27 27 26 26 26 26 26 26 26 26 27 27 27 27 27 26 25 25 26 26 25 25 25 24 23 23 23 22 21 21 20 19 18 18 17 17 17 17 17 17 16 16 16 16 16 15 15 15 15 15 15 15 16 16 16 16 16 16 17
24 24 24 24 24 24 24 25 26 27 29 30 30 31 31 31 31 31 31 30 30 30 29 29 28 28 28 28 27 27 27 26 26 26 25 25 25 26 27 27 27 26 26 26 26 26 26 26 26 25 24 24 23 22 22 21 21 20 19 18 18 18 18 18 18 18 18 17 17 17 17 16 16 16 16 16 16 16 17 17 17 17 17 17 17
23 23 23 24 24 24 25 26 26 27 29 29 30 31 31 31 31 31 31 30 30 30 30 29 29 29 29 29 28 28 27 27 26 26 25 25 25 26 27 27 27 27 27 27 27 27 27 27 27 26 25 25 24 23 23 22 21 21 20 19 19 19 19 18 19 19 19 18 18 18 18 17 17 17 17 17 17 17 18 18 18 18 18 18 18
22 22 22 23 24 24 25 26 27 27 28 29 30 31 31 31 31 31 30 30 30 30 30 30 30 30 30 30 29 28 28 27 27 26 26 25 25 25 27 27 27 27 28 28 28 28 28 28 27 27 27 26 25 24 24 23 22 21 21 20 20 20 20 19 19 19 19 20 19 19 19 18 18 18 18 18 18 18 18 19 19 19 19 18 19
22 22 22 23 23 23 24 26 27 27 28 29 29 30 30 30 30 30 30 30 30 31 31 31 31 31 31 31 30 29 28 28 28 27 26 26 25 26 26 27 28 28 28 29 29 29 29 29 28 28 27 27 26 25 25 24 23 23 22 21 21 21 20 20 20 20 20 20 20 20 20 20 19 19 19 19 19 19 19 19 19 19 19 19 20
22 22 23 23 23 23 24 26 27 27 27 28 29 30 30 30 30 30 30 30 30 30 31 30 31 31 31 31 30 30 29 29 29 28 28 27 26 26 26 28 28 29 29 29 30 30 30 29 29 28 28 28 27 26 26 26 25 24 23 22 22 22 21 21 21 21 21 21 21 21 21 21 20 20 20 20 20 19 19 19 19 20 20 20 21
21 22 22 23 24 24 23 25 27 27 27 28 29 29 30 31 30 31 30 30 30 30 31 31 31 31 30 30 31 31 30 30 30 30 29 28 27 27 27 28 28 29 29 30 31 31 31 30 30 29 29 29 28 28 27 27 26 25 24 23 23 22 22 22 22 22 22 22 22 22 22 22 21 20 20 20 20 20 20 20 20 21 21 21 21
19 20 21 22 24 24 23 25 26 26 27 28 28 29 30 31 31 31 31 30 30 31 31 31 31 30 30 30 30 31 31 31 31 31 30 29 29 28 27 28 28 29 30 30 31 32 32 32 31 31 30 30 29 29 28 28 27 26 25 24 24 23 23 23 23 23 23 23 22 23 23 22 21 20 20 21 21 21 21 21 21 22 22 22 22
20 20 20 22 23 23 24 25 25 26 27 27 28 28 29 30 30 30 30 30 31 31 31 31 31 31 31 31 31 31 31 32 32 32 31 31 30 29 29 28 29 29 29 30 32 32 33 33 32 32 32 31 30 30 29 29 28 27 26 25 25 24 24 24 24 24 23 23 23 23 23 23 22 22 22 22 22 22 22 22 22 22 23 23 23
20 20 20 21 22 23 23 25 26 27 26 26 27 27 27 28 29 29 30 31 31 31 31 31 31 31 31 31 31 31 31 32 32 32 32 32 32 31 30 30 29 29 30 30 32 33 33 34 33 33 33 32 32 31 30 30 29 28 27 27 26 26 25 25 25 25 24 24 23 23 23 23 23 23 23 24 23 23 22 22 22 23 23 24 24
21 21 21 21 22 22 22 24 26 27 27 26 26 26 26 27 28 29 30 31 31 31 31 31 31 31 31 31 31 31 31 31 32 33 33 33 33 32 32 31 30 30 30 31 32 33 33 34 34 34 33 33 33 32 31 31 30 29 28 27 27 27 26 26 26 25 25 25 25 24 24 24 24 23 24 25 25 24 23 23 23 23 23 24 24
22 22 21 21 22 22 22 23 24 26 27 27 27 27 27 27 28 29 30 30 31 31 32 31 31 31 31 31 31 31 31 31 31 32 33 34 34 33 33 32 31 31 31 31 32 33 33 34 35 34 34 34 34 33 32 31 31 30 29 28 28 27 27 26 26 26 26 25 25 25 24 24 25 24 25 25 25 24 24 24 23 23 23 23 24
22 22 21 21 21 23 23 23 23 24 26 27 27 28 28 28 28 29 29 29 30 31 31 31 32 32 32 32 31 31 31 31 31 32 32 33 34 34 34 33 33 32 32 32 32 33 34 34 35 35 35 35 34 33 33 32 31 31 30 29 29 28 27 27 27 26 26 26 26 25 25 25 26 26 26 26 25 24 24 23 23 23 23 23 23
21 21 21 20 20 21 23 24 24 24 25 26 27 27 28 29 29 29 29 29 30 31 31 31 32 32 32 32 32 32 32 32 32 33 33 34 34 34 34 34 34 34 33 33 33 33 34 35 35 36 36 35 35 34 34 33 32 32 31 30 30 29 28 27 27 27 27 26 26 26 26 26 26 26 26 25 25 24 23 23 23 23 23 22 22
20 19 19 20 19 20 21 22 23 23 24 25 25 26 28 29 29 29 30 30 31 31 31 31 31 31 31 32 32 32 33 33 33 34 34 34 34 34 35 35 36 35 34 34 34 34 35 35 36 36 37 37 36 35 35 34 34 33 33 32 30 30 29 28 27 27 27 27 27 27 26 26 26 26 25 24 24 23 23 23 23 23 22 22 22
19 19 19 19 18 18 19 20 21 22 23 23 24 25 26 28 29 29 30 30 31 31 31 30 30 30 31 32 32 33 33 34 34 33 34 34 34 34 35 36 36 36 36 35 35 35 35 36 36 37 37 38 37 36 36 36 35 35 34 33 32 30 29 28 28 28 27 27 27 27 27 26 26 25 24 23 23 23 22 22 22 22 22 22 21
20 19 19 19 18 18 18 18 19 20 22 23 23 24 25 26 27 29 30 30 30 30 30 30 30 30 31 32 32 33 33 34 34 33 33 34 35 35 36 37 37 37 37 37 36 36 36 36 37 37 38 38 38 37 37 37 37 36 36 34 33 31 30 30 29 28 27 27 27 27 26 26 26 25 24 23 23 22 22 22 22 21 21 20 20
21 20 19 19 19 18 18 18 18 19 21 23 24 24 25 26 27 28 29 29 29 30 30 30 31 31 32 32 32 33 33 33 33 34 34 34 34 35 36 37 38 38 39 39 38 37 37 37 37 37 38 38 38 38 38 38 38 37 37 35 34 32 31 30 29 28 27 27 27 27 26 26 26 25 23 22 22 21 21 21 21 19 18 18 19
21 20 20 20 20 20 20 19 18 18 20 22 24 25 25 26 27 28 28 29 29 30 31 31 32 33 33 34 34 34 34 34 34 35 35 34 34 34 35 36 38 39 40 40 40 39 38 38 38 38 38 38 39 38 38 39 39 38 37 36 34 33 32 30 29 28 27 27 26 26 26 26 25 24 23 21 21 20 20 20 19 18 18 18 18
21 21 20 20 21 21 21 21 20 19 20 21 22 24 25 26 27 27 28 29 30 31 32 33 34 34 35 35 35 35 36 36 36 36 37 36 36 36 36 36 37 39 40 41 41 40 40 39 39 39 39 39 39 39 39 40 40 39 38 36 35 35 34 32 30 28 26 26 26 26 25 25 24 23 21 20 20 20 19 19 18 18 18 18 18
21 21 20 20 21 21 21 21 21 21 21 21 22 23 24 25 26 27 28 29 31 32 33 34 35 36 36 36 37 37 37 37 38 38 38 38 38 37 37 37 37 38 39 40 41 41 41 41 40 40 40 40 39 39 40 40 41 40 39 37 36 36 35 34 32 29 26 25 25 25 24 24 23 21 20 19 19 19 19 18 18 18 18 18 18
21 21 21 21 21 21 21 21 21 22 22 23 23 23 24 25 26 27 28 29 31 32 34 34 35 36 36 37 38 38 39 39 40 40 40 40 40 39 39 39 39 39 40 41 41 41 42 42 42 41 41 41 41 41 41 41 41 40 39 38 37 35 34 34 33 30 27 25 24 24 23 22 21 20 19 19 19 19 18 18 17 17 18 18 18
21 21 21 21 21 22 22 22 23 23 23 23 23 24 24 25 26 26 27 28 29 31 33 33 34 35 36 37 38 39 40 41 41 42 41 41 41 41 41 41 41 40 40 41 42 42 43 43 43 43 43 43 43 43 42 42 41 40 40 39 37 35 34 32 31 31 28 25 23 22 21 21 21 20 19 19 19 18 18 17 17 17 18 18 18
22 21 21 21 22 22 23 23 24 24 24 24 24 24 25 25 26 26 27 28 29 30 31 32 34 35 36 37 39 40 41 42 42 43 43 43 44 44 44 44 44 43 42 42 42 43 44 44 44 44 44 44 44 45 44 43 42 41 40 39 37 36 34 32 31 30 28 25 23 22 21 20 20 19 19 19 18 18 18 17 17 17 18 18 18
22 21 21 21 21 22 23 23 24 24 25 25 25 26 26 26 27 27 28 29 29 30 31 32 34 35 36 38 39 41 42 43 44 45 45 46 47 47 47 47 47 47 47 46 45 45 46 46 45 45 44 44 45 47 46 44 42 41 40 40 38 36 34 33 31 29 27 25 24 22 21 21 20 20 19 19 19 18 18 17 17 17 17 18 18
22 22 21 21 21 21 22 23 24 25 25 25 26 26 27 28 28 29 29 30 30 31 32 33 34 35 37 38 40 41 43 44 45 46 47 48 49 49 50 50 50 50 50 50 49 49 48 47 47 46 46 46 47 47 46 45 44 42 40 39 38 36 34 33 32 29 27 25 24 23 22 22 22 21 20 20 19 19 18 18 17 17 18 18 18
22 22 21 21 21 21 22 23 24 25 25 26 26 27 27 28 28 29 29 30 31 32 32 33 35 36 37 39 40 41 43 44 46 47 48 49 50 50 51 51 51 52 53 53 52 51 50 49 49 48 48 48 47 45 44 44 43 42 41 39 38 36 34 33 32 29 27 26 25 24 23 23 23 22 21 21 20 19 18 18 18 18 18 18 18
Wind_Direction
200 200 202 202 202 201 200 199 197 197 197 197 197 198 198 198 198 198 198 197 198 198 199 199 200 200 201 202 204 206 208 210 211 210 210 210 210 212 214 216 219 224 230 236 245 255 264 274 287 296 302 307 307 312 325 333 337 344 348 350 349 350 351 351 350 350 351 349 343 338 334 328 323 316 306 299 292 285 283 289 296 299 300 301 298
200 201 202 202 203 203 202 202 200 200 199 199 199 200 200 200 200 200 199 199 199 199 199 200 201 202 203 204 205 207 209 212 213 212 213 213 214 216 218 219 222 226 233 238 246 255 263 273 284 294 301 302 299 305 320 329 339 348 351 352 352 352 350 350 350 350 354 358 355 350 345 338 332 326 315 302 293 286 285 289 293 295 299 303 304
204 205 204 204 204 203 204 204 204 203 201 201 202 202 202 202 202 201 201 200 200 201 201 202 204 205 205 206 207 209 211 214 216 216 215 217 218 220 220 221 224 228 234 240 246 252 258 269 280 289 295 291 286 293 307 322 335 346 350 351 352 353 352 353 352 351 353 357 357 353 350 346 340 334 325 312 299 289 286 289 291 294 299 305 310
208 207 206 205 205 204 205 205 205 205 204 204 203 203 203 203 203 203 203 202 202 203 203 204 205 207 208 208 210 212 214 216 219 220 220 220 221 222 222 222 225 229 234 239 244 248 254 264 275 283 282 276 273 278 290 310 330 341 346 349 354 357 360 3 4 4 3 3 5 3 360 359 353 347 339 327 313 297 288 289 291 295 300 306 311
210 208 207 207 206 206 206 206 206 206 207 206 205 204 205 205 205 205 205 205 205 205 206 207 208 209 209 209 211 214 216 217 219 222 223 223 225 224 223 223 226 231 234 238 242 246 252 258 267 273 270 262 261 265 278 302 323 334 341 349 359 5 9 14 16 17 18 16 17 15 10 5 357 353 350 339 326 311 297 291 292 296 301 306 308
212 211 209 208 208 207 207 207 207 207 207 207 206 206 206 207 207 207 207 207 208 208 208 209 210 210 210 210 212 214 216 217 218 221 222 224 226 225 224 225 228 232 234 237 241 245 250 253 257 263 259 252 254 260 273 295 316 329 338 350 4 11 16 21 21 22 25 24 21 15 8 3 358 354 351 342 332 321 309 300 297 297 300 303 304
212 214 212 210 209 208 209 209 208 208 208 207 207 208 208 209 209 208 209 210 210 211 211 212 212 212 212 213 215 217 219 220 221 223 225 226 226 226 226 227 229 232 235 237 240 244 247 247 249 252 249 246 250 258 270 292 314 327 336 345 359 9 16 20 18 19 23 22 19 13 6 1 357 353 347 341 335 325 313 306 302 301 301 302 301
212 215 214 212 210 210 211 211 210 210 209 208 209 210 210 211 211 211 212 213 213 213 213 214 215 215 215 216 218 221 223 224 225 226 228 229 228 227 227 228 230 232 235 237 240 242 243 243 244 244 242 242 247 257 269 290 311 323 330 335 346 1 12 18 15 12 14 15 14 10 4 0 354 349 344 339 335 329 319 311 306 304 302 299 297
213 214 215 214 212 211 212 212 212 212 210 210 210 211 212 212 213 213 214 215 215 215 215 216 216 217 217 219 221 223 226 227 228 229 230 231 231 230 229 230 231 232 235 238 240 241 241 240 241 240 238 240 247 257 269 284 301 313 317 323 334 344 356 8 7 4 4 7 8 7 4 1 356 349 345 339 333 327 319 313 308 308 305 300 295
216 215 215 216 215 214 213 212 213 213 213 212 212 212 213 214 215 215 216 217 217 217 217 217 217 218 219 220 222 225 227 228 229 230 231 232 233 232 232 232 233 234 236 238 240 240 240 238 238 238 237 239 246 255 266 277 289 298 303 310 320 328 341 357 358 356 355 356 0 4 4 3 359 352 346 340 334 326 318 313 307 306 308 305 299
218 216 216 216 217 217 215 213 214 215 214 214 214 214 214 215 216 216 218 218 218 218 219 219 219 219 220 221 224 226 227 229 229 230 231 232 233 233 233 233 234 236 237 238 240 240 239 238 236 235 235 237 243 251 260 269 277 284 289 295 306 317 334 346 348 349 351 350 351 355 358 359 358 354 347 342 337 329 320 316 308 302 305 307 304
218 218 217 216 217 218 217 215 216 215 215 214 214 215 215 216 216 217 218 218 219 219 219 220 221 221 222 223 225 226 228 229 230 231 231 231 233 234 234 235 235 236 237 239 240 239 238 238 235 233 233 235 239 246 254 259 264 269 274 281 292 305 322 332 337 342 345 345 345 347 350 352 352 351 347 343 338 332 324 320 314 306 305 306 305
218 218 218 217 217 218 218 217 216 215 216 215 215 215 216 217 218 218 219 219 220 221 221 222 223 223 224 225 226 227 228 230 231 232 232 232 233 234 234 235 235 236 236 238 239 238 237 237 235 232 232 234 236 241 247 249 252 257 261 266 277 293 308 317 326 333 337 340 341 342 344 346 347 347 344 340 336 333 328 324 319 312 309 307 305
219 219 219 218 218 218 219 219 218 216 217 217 217 217 217 219 220 221 222 222 222 223 223 224 225 226 226 227 228 228 229 231 232 233 233 233 234 235 236 236 236 236 236 238 239 238 237 236 234 232 232 233 234 239 243 243 245 251 253 257 270 287 301 310 318 324 330 335 339 340 341 341 343 343 342 338 334 331 328 324 321 318 314 311 308
221 221 220 221 220 219 219 220 220 218 218 219 219 219 220 221 221 222 224 224 225 225 226 227 227 228 228 229 229 230 231 232 233 234 234 234 235 236 237 237 236 236 236 238 239 237 236 235 233 232 232 233 234 238 241 240 243 248 250 255 267 283 296 305 312 317 323 329 333 334 334 335 337 339 339 338 334 331 328 323 320 319 316 313 310
221 222 222 222 222 221 220 220 221 221 220 220 221 221 222 222 223 224 225 226 226 227 228 229 230 230 230 230 230 231 232 233 234 235 235 235 235 236 238 238 237 236 236 237 238 237 236 234 233 233 232 232 234 237 239 239 242 246 248 253 262 276 290 299 304 309 315 321 322 324 326 327 330 333 336 338 336 334 332 326 319 315 314 313 313
220 221 222 223 223 223 222 221 222 222 222 222 222 223 223 224 224 225 226 227 227 228 229 230 231 231 232 231 231 232 233 234 235 236 236 236 236 237 238 238 237 236 236 236 237 236 235 234 234 233 233 233 234 237 237 237 240 244 247 253 261 272 284 290 294 301 308 313 314 316 318 321 324 326 329 333 335 333 332 329 323 318 315 314 314
222 222 223 224 225 225 225 224 223 223 223 223 224 225 225 225 225 226 227 227 229 230 230 231 231 232 233 233 233 233 234 235 236 236 236 236 236 237 238 239 237 236 235 235 235 235 235 234 233 233 233 233 235 236 235 235 239 243 247 254 261 269 276 281 286 292 299 305 308 311 314 316 319 320 323 327 329 329 329 328 326 323 319 314 312
226 226 227 226 226 226 226 226 225 224 224 225 225 225 224 225 226 227 228 229 230 231 231 232 232 233 234 234 234 234 235 236 236 236 236 236 236 237 238 238 237 236 235 234 234 234 234 234 233 232 233 234 235 234 234 235 239 243 248 254 260 264 268 273 279 285 292 297 301 305 309 312 315 317 320 321 322 324 324 323 324 323 320 316 312
228 227 226 225 225 226 225 225 225 224 224 225 225 224 224 225 226 226 228 229 229 230 231 231 232 233 234 234 234 234 235 236 236 236 236 236 236 237 237 238 237 236 235 234 234 234 234 233 232 232 232 234 234 233 233 236 239 242 248 253 257 260 264 269 275 281 286 291 295 299 303 307 310 312 315 316 316 317 318 318 318 319 318 315 311
226 226 225 224 225 226 226 225 226 225 224 224 224 224 224 225 225 225 226 227 228 229 230 231 232 233 233 233 234 234 235 236 236 237 237 236 237 237 237 238 237 236 234 233 233 233 233 233 232 232 233 234 234 232 233 236 238 242 247 251 255 259 263 269 274 277 281 285 289 294 298 302 304 307 310 311 310 311 312 312 313 314 314 312 309
226 227 228 226 225 227 226 226 225 225 224 223 223 223 224 224 224 225 226 227 228 228 229 231 231 232 232 233 234 234 235 236 236 237 238 237 237 237 237 237 237 236 234 233 232 232 232 232 232 232 233 234 233 232 234 237 239 242 246 249 254 258 263 268 272 275 278 281 286 290 294 298 301 303 305 306 306 306 307 307 308 309 309 308 306
230 230 230 229 228 228 227 226 225 223 222 222 222 222 223 223 223 224 225 226 228 228 229 230 230 231 232 233 234 234 235 236 236 238 238 238 237 237 236 236 236 236 234 232 231 231 231 232 232 232 233 233 233 233 235 238 240 242 245 248 253 258 262 266 270 274 277 280 284 287 290 295 298 299 301 303 303 303 303 303 304 306 306 306 305
232 232 232 231 230 230 229 227 225 223 221 221 221 221 222 222 223 224 225 227 228 228 228 228 229 230 231 232 233 234 235 236 237 238 238 238 238 237 236 236 235 235 234 232 231 231 231 231 231 232 232 232 232 234 236 238 241 243 245 249 253 256 260 264 269 274 278 281 283 284 287 291 294 295 297 299 300 301 301 301 302 303 303 304 304
234 233 232 231 229 229 228 227 224 222 220 219 220 220 221 222 223 224 225 227 227 226 227 227 228 229 230 231 233 234 235 236 237 239 239 239 238 238 236 235 235 234 233 232 231 230 231 231 231 231 232 231 232 234 236 239 242 244 246 249 252 255 259 264 269 275 279 282 282 282 284 287 290 291 292 294 296 298 299 300 300 301 301 302 303
233 233 232 230 228 228 228 226 224 221 220 219 220 220 221 222 223 224 226 226 226 226 226 226 227 228 229 231 232 233 235 236 238 239 239 240 239 238 236 235 234 233 232 232 231 231 231 231 231 232 231 231 232 235 237 240 242 244 246 248 250 254 259 264 270 275 280 282 282 281 283 285 286 287 288 290 292 295 297 298 298 298 299 300 302
232 232 232 229 228 229 228 225 224 222 221 221 220 220 221 222 223 225 226 226 226 225 225 226 227 228 229 231 232 234 236 238 239 240 240 240 240 238 236 234 233 232 231 231 231 231 231 231 232 232 232 231 233 235 238 240 241 243 246 247 250 254 259 264 270 275 279 281 282 282 283 284 284 284 285 287 289 292 294 296 296 297 298 299 300
233 233 232 228 228 231 230 226 224 223 223 223 222 221 221 222 223 225 225 225 225 225 224 225 226 228 230 232 233 235 237 238 240 240 241 241 240 239 236 234 233 233 232 232 231 231 231 232 232 233 232 232 233 236 238 239 240 243 245 247 250 255 259 265 269 274 277 280 280 281 282 283 283 283 283 285 287 289 292 293 294 295 296 297 299
235 234 232 229 229 232 232 228 226 225 224 224 223 222 221 223 224 225 225 225 225 224 224 225 227 229 231 233 234 236 237 238 240 240 240 241 241 240 237 235 234 234 233 233 232 232 232 232 233 233 233 233 234 237 238 238 240 243 245 248 252 256 260 264 268 272 276 278 279 281 282 282 283 282 281 282 284 285 288 291 292 293 294 295 297
238 237 235 232 231 233 233 230 227 225 225 224 224 223 223 224 224 225 225 225 224 224 225 226 228 230 232 234 235 236 237 238 239 240 240 240 241 240 238 236 235 235 235 234 234 233 233 233 233 234 234 233 235 237 237 237 240 243 246 249 253 257 260 264 267 271 274 276 278 280 281 281 281 281 280 280 281 283 285 288 289 291 293 294 295
241 240 238 236 235 235 234 231 227 225 224 224 224 224 224 225 225 225 225 225 224 225 226 227 229 231 232 234 235 236 237 238 239 239 240 240 240 240 239 238 237 237 236 235 235 235 234 234 234 234 234 234 235 236 236 237 240 243 247 251 254 258 261 263 266 269 272 275 277 279 280 280 280 281 281 279 279 281 283 285 287 289 291 292 294
243 243 241 238 236 235 233 231 228 226 225 224 224 224 225 225 226 226 226 225 225 226 227 228 230 231 232 234 235 236 237 238 238 239 239 239 239 240 240 239 238 238 237 237 236 236 236 235 235 235 235 234 235 236 236 238 241 244 247 251 255 258 261 264 266 268 271 275 277 279 280 281 281 281 282 282 280 280 282 283 285 287 289 290 292
244 245 244 240 238 236 233 232 229 227 226 226 225 225 225 227 227 227 226 226 226 228 229 230 231 231 233 234 235 236 238 238 238 238 239 239 239 239 240 240 239 239 239 238 237 237 237 236 236 235 235 235 235 236 237 239 242 244 247 251 255 259 261 264 266 268 271 274 277 280 282 284 284 282 282 284 283 281 281 282 284 287 289 290 290
245 245 245 243 240 238 235 232 229 227 227 228 227 227 228 229 229 228 228 228 229 230 231 232 232 233 234 235 236 237 238 239 239 239 239 239 239 239 240 241 240 240 240 240 239 238 238 237 237 236 236 236 236 237 238 240 242 244 247 251 255 259 261 264 267 268 271 273 276 280 283 286 286 283 283 286 285 283 282 282 285 288 289 290 290
247 248 248 245 241 239 235 231 228 227 227 228 228 229 231 231 230 230 230 231 232 232 232 233 233 234 235 235 236 236 237 238 238 238 239 239 240 240 240 241 241 241 242 242 241 239 239 238 237 237 237 237 237 237 238 240 242 244 247 251 255 258 261 264 266 269 271 273 276 279 282 285 286 285 284 285 286 284 283 282 285 288 289 289 289
248 249 249 247 242 239 236 232 229 228 228 229 229 231 231 231 230 231 232 232 233 233 233 234 234 235 235 236 235 235 236 236 237 238 239 240 241 241 240 240 242 243 243 243 242 241 240 239 238 238 238 238 238 238 238 240 243 245 248 251 254 257 260 263 266 268 271 273 276 279 281 284 286 286 286 285 284 283 283 283 285 287 287 287 288
247 248 249 249 244 239 235 234 232 231 231 230 231 231 232 232 231 231 232 233 234 234 234 235 236 236 236 236 236 235 236 237 237 238 240 241 242 242 241 241 242 243 244 244 244 243 241 240 239 239 239 239 239 238 239 241 243 245 248 251 253 256 258 261 265 268 270 273 275 277 280 283 285 286 287 285 282 281 283 284 285 286 286 286 287
246 247 249 249 246 240 235 233 233 234 234 232 232 232 232 232 232 232 233 234 234 235 235 237 238 237 237 237 237 237 238 239 239 240 242 243 243 243 243 242 242 243 244 245 245 244 243 241 240 240 240 240 240 239 239 241 243 245 248 250 252 254 257 260 264 267 269 271 273 275 278 282 285 286 286 284 280 279 282 284 284 284 283 284 286
244 245 247 247 245 240 236 234 234 234 234 233 233 233 232 232 233 233 234 235 236 236 236 237 238 238 238 239 239 239 240 241 242 243 244 244 244 244 243 242 242 243 244 245 245 244 244 243 242 241 241 241 242 241 240 242 244 245 247 250 252 254 256 259 262 265 267 270 273 275 276 279 283 285 285 283 278 278 280 283 283 282 281 282 286
243 243 245 246 244 239 236 236 236 235 234 233 233 234 234 235 235 236 237 238 238 237 237 239 240 239 240 241 241 241 242 243 244 245 246 246 245 244 244 243 242 243 243 244 245 244 244 243 243 242 242 242 243 242 241 242 243 245 247 249 251 253 255 258 261 263 265 268 272 274 275 276 280 283 284 282 277 275 278 282 282 281 281 283 286
242 242 243 243 241 237 236 238 240 239 236 235 235 237 238 238 238 238 240 240 240 239 239 241 241 240 241 241 241 242 243 244 245 245 246 247 246 245 244 243 241 241 242 243 244 244 244 244 243 243 243 243 243 242 241 242 243 245 246 248 250 253 254 257 260 262 264 267 270 272 275 275 278 281 283 281 277 274 277 281 281 282 283 285 286
240 241 242 240 238 236 237 242 244 243 241 238 239 240 241 240 240 241 242 242 241 240 241 242 242 242 242 242 242 244 245 246 245 244 245 247 247 246 245 243 242 241 241 242 243 243 244 244 244 243 243 243 242 241 241 242 243 244 245 247 250 252 254 256 258 260 263 266 268 271 274 275 277 280 282 280 276 274 276 279 280 282 283 284 286
238 241 242 241 238 236 239 244 246 247 245 243 243 243 243 243 243 244 244 243 242 241 242 242 243 243 244 244 244 245 247 247 245 244 245 246 247 247 247 246 244 242 241 242 243 243 243 244 244 244 243 243 242 242 241 242 243 244 245 246 248 251 252 253 256 258 260 263 266 270 273 275 277 279 281 278 274 274 276 277 278 280 282 284 286
239 241 243 242 239 238 241 245 247 249 249 248 248 247 247 247 247 248 247 246 245 244 244 244 244 244 245 245 246 247 248 248 247 246 246 246 247 247 248 248 246 243 242 242 242 243 243 243 244 245 244 244 243 243 241 241 242 243 244 244 246 248 249 250 252 256 259 262 266 269 272 274 276 278 277 275 273 272 274 275 277 279 282 284 286
240 242 244 244 242 242 243 245 248 251 251 251 251 251 250 251 251 251 251 250 249 249 248 248 247 246 246 247 247 248 249 249 249 248 247 247 246 246 247 248 246 245 244 244 244 243 243 243 244 244 244 243 243 242 242 242 242 242 242 242 243 245 246 247 248 252 258 263 265 267 270 272 274 275 273 272 271 271 272 275 277 279 282 284 285
242 244 246 246 246 246 246 247 249 251 252 252 253 253 253 254 254 254 254 253 253 252 252 251 251 249 249 249 249 250 250 251 250 249 248 247 246 246 246 246 245 245 245 245 245 245 245 244 243 243 242 242 242 242 242 242 241 242 242 241 242 243 244 245 246 250 257 262 263 265 268 271 272 272 271 269 269 270 273 275 277 279 282 283 284
245 246 248 248 248 249 250 251 252 254 255 256 255 255 255 256 257 257 257 256 256 254 253 253 252 252 252 252 252 253 252 252 251 250 249 248 246 246 246 246 245 245 245 245 245 245 245 245 244 242 242 242 242 242 241 240 241 241 241 240 240 241 242 244 246 251 255 259 262 264 266 269 270 269 268 267 268 270 273 275 276 279 282 282 283
247 249 250 251 251 252 254 254 255 257 258 258 258 258 259 259 259 260 260 260 260 258 257 256 255 255 255 255 255 255 254 253 252 250 249 249 248 247 247 247 247 248 247 247 246 245 245 245 245 243 242 241 242 241 240 240 240 240 239 238 238 239 240 242 245 249 250 254 260 264 264 265 266 265 264 266 268 270 272 274 275 278 280 281 281
248 252 254 254 255 256 257 257 258 259 260 260 261 262 263 263 264 264 264 264 263 262 261 260 259 259 258 258 258 258 257 255 254 252 252 251 250 249 249 249 249 249 249 248 247 247 247 246 245 243 241 240 240 240 239 238 238 237 237 236 236 235 237 240 243 245 247 252 258 260 260 260 260 260 262 264 266 268 271 273 275 276 277 278 280
250 252 254 256 258 258 258 259 261 261 262 262 263 265 266 267 267 268 268 267 266 266 265 264 263 262 261 261 261 260 259 257 256 254 253 253 252 251 251 250 250 249 249 248 247 248 248 246 244 243 242 240 240 239 236 234 234 234 234 234 233 233 235 239 241 243 246 252 255 255 255 256 256 257 260 262 264 266 268 269 272 274 275 276 279
250 252 254 257 259 260 260 261 262 263 264 264 265 266 267 268 268 269 269 269 269 268 268 267 267 266 265 264 263 262 261 260 258 256 255 254 253 252 252 252 252 250 249 248 247 247 246 245 244 244 242 240 239 238 235 232 231 232 232 231 231 232 235 238 240 243 247 251 253 253 252 253 254 256 258 261 262 264 265 267 271 274 274 275 278